Regional Weather Roundup
Issued by NWS State College, PA

Home | Current Version | Previous Version | Text Only | Print | Product List | Glossary Off
Versions: 1 2 3 4 5 6 7 8 9 10 11 12 13 14 15 16 17 18 19 20 21 22 23 24 25 26 27 28 29 30 31 32 33 34 35 36 37 38 39 40 41 42 43 44 45 46 47 48 49 50

000
ASUS41 KCTP 301403
RWRCTP

REGIONAL WEATHER ROUNDUP
NATIONAL WEATHER SERVICE STATE COLLEGE PA
1000 AM EDT SUN AUG 30 2015

Note: "fair" indicates few or no clouds below 12,000 feet with no
significant weather and/or obstructions to visibility.

* = STATION THAT DOES NOT REPORT PRECIPITATION /E.G. RAIN...SNOW...ETC/
    THUNDER OR FOG.

PAZ002>004-007>009-013>016-020>023-029>032-301500-
WESTERN PENNSYLVANIA

CITY           SKY/WX    TMP DP  RH WIND       PRES   REMARKS
ERIE           CLOUDY    72  66  81 SW8       30.10S
MEADVILLE      CLOUDY    68  65  90 SW3       30.13S FOG
FRANKLIN*      CLOUDY    68  64  88 SW6       30.15S
NEW CASTLE     FAIR      72  71  96 CALM      30.14R
BEAVER COUNTY  NOT AVBL
BUTLER*        PTSUNNY   68  66  94 S5        30.16S
PITTSBURGH INT PTSUNNY   70  65  84 CALM      30.14S
PITTSBURGH     MOSUNNY   70  62  76 SE6       30.15S
INDIANA*       MOSUNNY   72  66  83 SW7       30.19R
LATROBE        PTSUNNY   72  66  83 W3        30.17S
WASHINGTON CO* SUNNY     72  66  83 CALM      30.16S
$$

PAZ004>006-010>012-017>019-024>028-033>037-041-042-045-046-049>053-301500-
CENTRAL PENNSYLVANIA

CITY           SKY/WX    TMP DP  RH WIND       PRES   REMARKS
BRADFORD       CLOUDY    67  63  87 SW5       30.15F
DUBOIS         CLOUDY    70  65  84 VRB5      30.15S HAZE
CLEARFIELD     CLOUDY    68  61  78 CALM      30.16S
JOHNSTOWN      MOSUNNY   68  62  81 CALM      30.19S
ALTOONA        MOSUNNY   75  62  64 VRB3      30.17S
STATE COLLEGE  SUNNY     72  63  73 CALM      30.15S
WILLIAMSPORT   PTSUNNY   70  61  73 W5        30.12R
SELINSGROVE    SUNNY     72  64  76 CALM      30.13S
FT INDIANTOWN  SUNNY     73  66  79 VRB2      30.12F
CAPITAL CITY   SUNNY     76  65  68 W3        30.12S
HARRISBURG     PTSUNNY   77  66  68 CALM      30.12S
YORK           MOSUNNY   75  67  76 CALM      30.13S
$$

PAZ038>040-043-044-047-048-054-055-060>062-067>071-301500-
EASTERN PENNSYLVANIA

CITY           SKY/WX    TMP DP  RH WIND       PRES   REMARKS
SCRANTON       MOSUNNY   74  63  68 VRB3      30.13S
MOUNT POCONO   MOSUNNY   74  63  68 W7        30.16S
ALLENTOWN      SUNNY     75  65  70 SW5       30.12S
QUAKERTOWN*    SUNNY     75  66  73 W6        30.14S
READING        SUNNY     76  65  68 CALM      30.12R
LANCASTER      SUNNY     74  65  73 CALM      30.13S
COATESVILLE    SUNNY     73  66  78 CALM      30.15S
POTTSTOWN      SUNNY     74  67  78 VRB5      30.14S
BLUE BELL      SUNNY     79  68  69 CALM      30.13R
DOYLESTOWN     SUNNY     74  64  71 VRB5      30.12S
WILLOW GROVE   NOT AVBL
NORTH PHILA    SUNNY     80  63  55 W5        30.14R
PHILADELPHIA   PTSUNNY   78  65  63 W10       30.14R
$$


USA.gov is the U.S. government's official web portal to all federal, state and local government web resources and services.